Probability
0 0 0 0 0 0 0 0 0 0 0 1 0 0 0 1 3 4 6 10 15 16 14 13 12 12 13 14 19 27 33 37 39 40 41 41 38 30 22 15 9 5 6 6
0 0 0 0 0 0 0 0 0 0 1 2 1 0 1 2 2 3 4 7 10 13 13 12 11 11 14 16 22 31 37 37 37 40 42 41 36 28 20 14 9 7 7 8
0 0 0 0 0 0 0 0 0 1 3 5 4 2 3 3 4 3 3 5 7 9 11 11 9 10 14 18 25 34 39 37 36 39 41 39 33 24 17 14 11 9 10 10
1 0 0 0 0 0 0 0 0 1 3 6 5 4 4 4 5 5 4 6 8 9 11 11 10 10 15 20 25 32 35 34 33 32 33 32 28 22 18 16 15 13 13 13
1 0 0 0 0 0 0 0 0 1 3 5 4 3 2 3 3 5 6 8 10 11 12 13 11 10 14 20 23 25 25 24 22 21 21 23 22 21 21 20 18 15 15 15
1 0 0 0 0 0 0 0 0 1 3 4 4 3 2 1 2 3 5 8 9 9 10 11 11 10 11 14 16 14 11 10 9 10 13 15 16 18 20 20 19 15 15 16
0 0 0 1 0 0 1 0 0 1 3 3 5 6 3 1 2 3 3 5 7 7 7 8 9 8 8 9 8 5 3 3 3 5 7 9 11 13 14 15 14 13 13 15
0 0 1 1 1 2 2 1 1 2 2 3 5 5 2 1 2 2 2 2 4 5 5 6 7 6 6 6 4 2 2 2 2 2 3 4 6 8 9 9 9 8 9 10
0 0 1 1 2 2 2 1 1 1 2 3 3 2 1 2 2 2 2 1 1 2 2 4 4 3 3 3 3 2 2 2 1 1 1 2 3 4 5 5 4 5 6 6
0 0 0 0 1 1 1 1 2 3 3 3 2 1 1 1 1 1 1 1 0 0 0 1 1 1 1 1 1 1 2 2 2 2 2 2 2 2 2 2 3 4 5 5
0 0 0 0 0 0 0 2 3 4 4 4 4 2 1 0 0 0 0 0 0 0 0 0 0 0 0 0 0 1 1 1 1 1 1 2 1 1 2 2 2 3 3 3
1 0 0 0 0 0 1 2 4 4 4 4 4 1 0 0 0 0 0 0 0 0 0 0 0 0 0 0 0 0 0 0 0 0 0 0 0 1 1 1 1 1 1 1
1 0 0 0 0 0 1 2 3 2 3 3 2 1 0 0 0 0 0 0 0 0 0 0 0 0 0 0 0 0 0 0 0 0 0 0 0 0 0 0 0 0 0 0
1 0 0 0 1 1 1 2 2 1 1 1 1 0 0 0 0 0 0 0 0 0 0 0 0 0 0 0 0 0 0 0 0 0 0 0 0 0 0 0 0 0 0 0
0 0 0 1 2 3 2 1 1 0 0 0 0 0 0 0 0 0 0 0 0 0 0 0 0 0 0 0 0 0 0 0 0 0 0 0 0 0 0 0 0 0 0 0
0 0 1 2 2 2 1 1 0 0 0 0 0 0 0 0 0 0 0 0 0 0 0 0 0 0 0 0 0 0 0 0 0 0 0 0 0 0 0 0 0 0 0 0
0 0 1 1 1 0 0 0 0 0 0 0 0 0 0 0 0 0 0 0 0 0 0 0 0 0 0 0 0 0 0 0 0 0 0 0 0 0 0 0 0 0 0 0
0 0 0 0 0 0 0 0 0 0 0 0 0 0 0 0 0 0 0 0 0 0 0 0 0 0 0 0 0 0 0 0 0 0 0 0 0 0 0 0 0 0 0 0
0 0 0 0 0 0 0 0 0 0 0 0 0 0 0 0 0 0 0 0 0 0 0 0 0 0 0 0 0 0 0 0 0 0 0 0 0 0 0 0 0 0 0 0
0 0 0 0 0 0 0 0 0 0 0 0 0 0 0 0 0 0 0 0 0 0 0 0 0 0 0 0 0 0 0 0 0 0 0 0 0 0 0 0 0 0 0 0
0 0 0 0 0 0 0 0 0 0 0 0 0 0 0 0 0 0 0 0 0 0 0 0 0 0 0 0 0 0 0 0 0 0 0 0 0 0 0 0 0 0 0 0
0 0 0 0 0 0 0 0 0 0 0 0 0 0 0 0 0 0 0 0 0 0 0 0 0 0 0 0 0 0 0 0 0 0 0 0 0 0 0 0 0 0 0 0
0 0 0 0 0 0 0 0 0 0 0 0 0 0 0 0 0 0 0 0 0 0 0 0 0 0 0 0 0 0 0 0 0 0 0 0 0 0 0 0 0 0 0 0
0 0 0 0 0 0 0 0 0 0 0 0 0 0 0 0 0 0 0 0 0 0 0 0 0 0 0 0 0 0 0 0 0 0 0 0 0 0 0 0 0 0 0 0
0 0 0 0 0 0 0 0 0 0 0 0 0 0 0 0 0 0 0 0 0 0 0 0 0 0 0 0 0 0 0 0 0 0 0 0 0 0 0 0 0 0 0 0
0 0 0 0 0 0 0 0 0 0 0 0 0 0 0 0 0 0 0 0 0 0 0 0 0 0 0 0 0 0 0 0 0 0 0 0 0 0 0 0 0 0 0 0
0 0 0 0 0 0 0 0 0 0 0 0 0 0 0 0 0 0 0 0 0 0 0 0 0 0 0 0 0 0 0 0 0 0 0 0 0 0 0 0 0 0 0 0
Wind_Speed
9 5 5 7 8 9 11 11 11 8 6 2 4 4 3 2 2 4 5 6 7 8 8 8 8 9 10 10 10 11 11 12 12 11 11 11 11 11 11 12 12 12 12 12
9 8 8 9 10 11 11 11 11 10 7 5 5 4 4 4 4 4 4 4 4 5 5 5 6 6 7 7 8 8 9 10 9 9 9 10 10 10 10 11 11 11 12 13
9 6 8 11 10 10 10 8 9 9 1 6 5 6 6 5 5 6 5 4 4 3 2 2 2 2 3 3 3 4 5 4 5 5 6 7 7 8 9 10 10 11 12 13
7 6 12 2 2 3 6 6 5 2 4 6 9 9 9 7 7 8 7 7 7 6 7 6 5 6 5 5 4 4 3 2 1 2 3 3 5 6 6 7 8 9 11 12
8 10 10 3 3 3 5 4 2 4 8 11 13 12 11 9 9 9 9 9 9 9 10 9 9 9 9 9 7 7 6 5 4 2 1 0 2 3 4 5 7 8 9 10
8 9 8 1 5 2 4 5 5 7 11 13 12 6 8 8 9 10 10 10 11 11 12 12 11 10 12 11 9 8 8 7 6 5 3 2 2 2 2 3 5 7 7 8
10 9 5 6 5 5 5 3 7 8 10 10 5 7 12 10 10 10 10 11 11 12 12 11 10 10 12 11 10 8 7 7 6 6 4 4 3 3 3 3 4 5 6 6
6 8 2 7 4 2 5 4 6 8 8 9 13 15 14 12 11 10 10 10 11 11 11 10 10 10 11 10 8 7 7 7 8 7 6 5 5 4 4 5 5 5 5 6
2 1 6 2 1 4 2 4 6 8 11 14 15 15 14 13 11 10 10 9 9 10 11 9 8 8 9 7 6 7 7 7 7 6 6 5 5 5 4 4 5 6 6 6
2 1 2 1 0 1 1 4 7 10 13 15 16 15 14 12 11 10 9 8 8 9 9 8 7 7 7 6 6 6 6 5 4 4 5 5 5 5 6 6 6 7 8 8
4 1 0 2 2 3 6 8 11 12 13 14 16 15 13 11 10 9 8 7 6 7 7 7 6 6 6 6 5 5 5 5 5 5 5 5 5 5 6 6 6 7 9 10
3 3 2 3 3 6 10 12 14 15 15 14 14 14 13 10 9 8 7 6 6 6 5 5 5 5 5 5 4 5 5 5 6 6 6 6 7 6 3 5 6 8 10 11
3 4 4 5 7 9 12 13 14 14 15 14 13 12 11 9 7 7 6 5 5 4 4 3 3 4 4 4 4 5 5 6 6 7 7 8 8 9 9 7 6 9 11 11
2 3 6 8 10 12 14 15 15 15 14 13 11 10 9 8 6 5 4 4 3 2 2 2 2 3 4 3 4 5 6 5 6 7 8 8 8 9 9 10 11 9 7 6
4 4 9 12 13 14 15 15 15 14 13 11 9 8 7 6 4 3 2 2 1 1 2 2 2 3 3 4 5 6 7 6 7 8 8 8 9 9 9 11 10 10 10 9
9 12 13 14 15 15 15 14 13 12 10 9 7 6 5 4 3 2 1 0 1 3 3 3 3 3 4 5 6 6 5 3 6 9 9 8 8 9 9 10 10 10 10 11
12 13 14 14 14 13 12 11 10 9 8 6 4 3 2 1 0 0 0 1 2 2 2 2 3 4 5 6 7 7 8 6 6 8 8 8 9 10 10 10 10 10 10 10
12 13 13 13 12 11 11 10 9 7 5 4 2 1 1 2 2 2 2 1 1 1 3 4 4 5 5 6 7 7 8 8 8 8 8 8 9 9 9 9 10 11 11 11
14 14 14 13 11 10 8 7 6 4 3 1 1 2 3 3 3 2 2 2 2 1 4 5 3 5 5 6 8 6 7 8 8 8 8 8 8 9 9 9 10 11 11 11
14 13 12 10 9 7 5 4 3 2 0 1 2 2 3 3 3 3 2 2 4 5 5 4 4 5 6 6 8 7 7 8 8 8 8 9 9 9 9 10 10 10 10 10
11 10 9 7 6 4 3 2 2 2 2 3 3 3 3 3 2 2 3 2 5 5 3 1 3 5 6 7 8 7 7 8 8 8 9 9 9 9 10 10 10 10 10 10
6 5 4 3 2 2 1 1 2 3 3 4 4 4 3 2 1 1 3 3 4 3 3 3 6 8 9 10 6 7 7 8 8 7 8 8 9 9 9 10 10 10 10 10
3 3 3 3 3 3 3 3 3 3 3 4 4 3 3 3 2 2 2 4 4 3 3 6 7 7 12 7 6 7 7 8 8 8 8 8 8 8 9 10 9 10 10 10
2 3 3 3 3 3 4 4 4 3 3 3 2 2 2 1 2 4 5 6 5 3 4 6 4 7 9 5 6 6 7 7 7 8 8 8 8 8 8 9 9 10 10 12
2 3 3 4 4 3 3 4 4 3 3 2 2 2 2 3 3 4 4 5 4 2 3 5 1 6 5 6 6 6 6 7 8 8 8 8 8 8 9 9 9 10 10 10
3 4 3 4 4 4 5 4 4 3 3 2 1 2 3 4 5 4 3 4 5 3 3 3 4 3 5 6 6 7 7 6 7 7 8 8 9 9 9 10 12 10 10 10
4 3 3 4 3 3 4 4 4 4 3 2 2 3 3 4 4 4 4 3 3 3 4 4 4 5 5 6 6 6 6 6 7 7 8 8 8 8 9 11 9 10 10 11
Wind_Direction
255 258 247 245 237 225 237 261 277 288 288 336 53 47 57 87 140 153 161 171 182 189 191 198 203 209 213 217 217 216 216 218 220 221 219 218 215 214 212 212 216 217 220 223
238 233 239 248 246 240 243 256 263 272 278 70 79 78 75 80 100 118 130 142 155 171 181 191 203 213 217 219 216 211 217 223 224 221 217 216 217 216 214 216 222 223 225 228
240 218 238 245 243 243 240 245 258 269 5 116 107 82 68 69 80 80 81 85 98 108 109 122 159 182 195 203 195 189 201 216 215 215 215 216 218 219 221 223 224 228 233 235
244 226 248 285 73 269 259 254 255 256 121 123 112 99 77 66 76 77 73 72 68 72 77 78 85 96 97 99 107 117 120 126 144 198 213 215 224 231 234 235 234 235 238 241
243 242 253 199 168 214 243 241 196 172 143 136 134 125 88 69 72 76 75 71 70 68 73 72 73 81 85 81 81 83 80 75 71 74 87 186 237 252 251 250 249 248 247 249
234 253 258 149 114 147 243 217 138 157 158 159 175 166 107 94 86 81 79 77 76 75 73 71 69 75 81 79 74 68 63 60 57 55 51 38 6 324 299 275 268 267 264 262
235 245 252 94 124 191 240 69 130 159 163 172 166 89 114 115 101 94 89 86 83 78 72 66 67 71 74 72 65 62 64 64 60 53 48 37 23 7 337 313 301 291 290 282
232 243 211 114 162 255 40 94 147 156 155 134 113 114 120 119 112 105 98 92 87 84 79 71 67 71 71 64 61 61 60 56 51 42 29 32 24 7 350 328 304 293 292 289
249 34 74 117 64 56 69 133 146 146 135 133 130 128 126 122 116 110 104 97 93 92 86 76 69 69 71 63 58 60 58 51 43 37 29 19 5 352 334 324 314 315 311 305
249 133 103 127 172 142 152 146 138 135 137 138 134 133 130 126 122 116 109 104 99 94 90 84 73 68 69 62 57 57 51 41 31 21 12 12 343 339 335 331 328 325 318 313
243 308 191 100 83 127 128 131 130 132 134 134 132 131 129 126 123 118 112 102 97 93 91 85 75 66 59 52 42 39 33 19 7 5 4 341 336 332 324 329 336 315 315 313
331 28 346 65 109 136 136 133 132 132 130 130 130 129 127 124 123 121 115 110 103 93 85 76 68 63 54 43 30 14 7 2 351 346 346 331 327 321 283 275 264 253 257 274
349 13 51 99 120 128 128 128 129 128 127 125 123 122 120 120 122 119 115 109 97 86 76 65 58 54 45 31 17 6 350 347 338 336 331 326 324 320 317 304 264 251 252 253
74 111 110 112 115 119 120 119 119 117 117 116 118 119 120 120 117 115 106 96 87 72 50 44 41 45 30 11 353 339 327 337 325 324 322 320 319 316 314 315 316 314 300 280
72 99 114 116 116 116 118 119 117 115 115 115 117 117 116 113 112 103 88 79 71 27 30 25 29 35 10 344 335 328 324 333 334 323 315 317 318 315 315 315 313 314 316 315
99 106 114 117 117 119 120 119 116 115 115 115 116 117 123 129 126 112 92 334 326 6 21 8 12 13 355 338 327 315 316 331 315 313 314 321 322 318 317 317 316 317 318 320
112 113 114 113 113 112 110 108 107 106 105 104 101 101 106 107 160 168 310 2 5 14 20 19 12 360 347 341 328 323 324 327 312 309 324 326 324 323 322 320 319 319 318 325
100 103 106 108 109 107 101 98 95 93 87 80 80 65 342 314 319 344 346 342 345 35 48 33 14 340 340 351 336 324 323 325 330 331 328 330 329 323 321 320 320 320 320 320
95 96 95 94 94 95 95 95 95 97 96 83 336 328 315 306 309 320 328 314 314 357 46 32 352 321 348 5 334 312 325 329 331 331 327 329 319 323 325 325 325 323 321 322
90 88 87 87 85 87 94 98 103 102 72 296 297 301 305 317 325 332 339 354 31 31 32 9 337 355 352 3 329 326 336 335 334 332 332 331 329 329 330 329 327 325 325 324
90 88 86 83 77 66 54 38 13 350 327 311 307 307 315 331 341 344 323 27 70 36 19 351 357 8 360 341 311 335 345 342 338 338 337 335 333 333 333 332 329 328 327 325
80 78 73 69 59 42 24 341 333 328 328 324 319 322 325 326 350 34 51 43 63 19 336 22 33 24 347 319 338 353 351 349 346 345 343 340 337 335 334 333 330 330 329 328
59 43 28 10 356 346 329 322 329 329 329 330 329 335 342 356 351 346 58 61 49 13 6 45 33 357 321 324 4 2 0 357 352 347 344 340 337 337 335 333 332 331 331 331
27 18 4 347 327 309 312 326 331 326 319 311 335 11 345 340 53 57 71 87 56 5 50 66 19 335 313 359 13 7 3 360 354 348 345 343 341 341 339 337 335 334 334 334
345 331 331 321 300 306 309 296 290 287 291 325 28 56 33 37 52 69 76 84 84 9 70 94 58 326 350 23 15 7 5 6 354 345 347 348 346 343 343 342 341 339 338 337
321 310 329 316 321 311 307 311 313 323 325 335 33 53 63 72 80 84 85 84 80 62 42 46 39 8 20 21 18 10 6 3 357 355 355 350 348 349 348 346 343 342 339 339
282 282 272 278 294 317 323 322 320 327 338 8 49 61 70 75 79 81 83 80 78 64 55 45 33 26 24 21 18 14 11 7 3 358 354 353 351 349 348 346 346 345 344 345